Location: Stigler
(35.2540°N, 95.1230°W)
Time: 14:39:09
(UTC-06:00)

Daily predictions for brighter satellites

Satellite Brightness Start Highest point End
(mag) Time Altitude Azimuth Time Altitude Azimuth Time Altitude Azimuth
Cosmos 1437 Rocket 4.0 18:31:19 10° SE 18:34:28 22° E 18:37:39 10° NE
Landsat 4 3.7 18:35:01 10° NNE 18:38:44 67° ESE 18:42:29 10° S
GPS 2-05 Rocket1 4.2 18:36:33 10° SSW 18:39:09 23° SSE 18:41:43 10° E
Cosmos 1674 Rocket 3.5 18:37:50 10° N 18:42:09 67° E 18:46:25 10° SSE
CENTAUR R/B 2.6 18:37:14 10° SSW 18:43:04 83° WNW 18:49:45 10° NNE
Lacrosse 5 3.3 18:38:26 10° NW 18:43:10 41° WSW 18:47:52 10° SSE
IUS-18 SRM-1 3.9 18:43:11 10° SW 18:44:31 14° S 18:46:11 10° SE
Cosmos 921 Rocket 4.1 18:41:02 10° N 18:44:48 26° ENE 18:48:31 10° SE
Gbstr 26 Del rocket 2.9 18:44:06 10° SSW 18:47:44 50° SE 18:51:25 10° ENE
Cosmos 1908 Rocket 3.6 18:44:03 10° S 18:48:28 62° E 18:52:53 10° NNE
YAOGAN 1 3.7 18:46:10 10° S 18:50:20 48° W 18:54:32 10° NNW
Cosmos 1733 Rocket 4.5 18:48:59 10° SSW 18:53:04 42° W 18:57:10 10° N
Cosmos 1633 2.7 18:55:00 10° S 18:58:32 75° W 19:02:07 10° N
FENGYUN 3A 4.1 18:53:43 10° S 18:59:03 66° WSW 19:04:27 10° NNW
FengYun 1-2 T 4.3 18:54:16 10° SSE 18:59:36 53° ENE 19:04:55 10° N
Cosmos 2034 Rocket 4.2 18:59:20 10° N 19:05:34 53° E 19:11:43 10° SSE
Cosmos 1891 Rocket 4.4 18:59:30 10° N 19:05:39 63° E 19:11:38 10° SSE
COSMOS 2455 3.5 19:00:34 10° SSE 19:05:47 32° ESE 19:11:01 10° NE
Iridium 4 Rocket 3.1 19:03:00 10° N 19:07:40 63° E 19:11:57 10° S
OAO 2 Rocket 3.2 19:06:10 10° W 19:11:09 86° S 19:14:27 21° E
Cosmos 2237 Rocket 4.2 19:07:47 10° NW 19:12:41 31° WSW 19:17:32 10° SSW
FREGAT/IRIS 2.5 19:11:23 10° SSE 19:14:18 61° ENE 19:17:14 10° N
H-2A R/B 4.3 19:13:02 10° SSW 19:15:24 11° S 19:17:09 10° SSE
ERS-2 2.0 19:12:48 10° SSE 19:16:26 64° ENE 19:20:06 10° N
Tiangong 2 2.3 19:13:38 10° WNW 19:16:36 38° SW 19:18:57 14° SSE
BREEZE-M DEB (TANK) 3.6 19:15:06 10° NNW 19:16:54 17° NE 19:17:02 17° NE
H-2A R/B 2.9 19:14:11 10° S 19:18:05 76° W 19:22:00 10° NNW
Cosmos 1452 Rocket 4.2 19:13:13 10° NNW 19:18:23 59° WSW 19:23:31 10° S
SL-16 R/B 2.4 19:12:48 10° NNW 19:18:28 76° WSW 19:24:06 10° SSE
Cosmos 1975 Rocket 3.3 19:14:12 10° N 19:18:30 46° E 19:22:48 10° SSE
SJ-6B 2.9 19:19:13 10° SSE 19:22:48 45° ENE 19:26:30 10° N
Cosmos 2251 Rocket 4.3 19:20:27 10° SSE 19:24:50 28° E 19:25:57 26° ENE
SPOT 3 Rocket 4.4 19:21:27 10° S 19:26:30 53° W 19:31:37 10° NNW
Resurs 01 Rocket 3.0 19:29:28 21° NE 19:29:28 21° NE 19:31:52 10° NNE
Cosmos 44 Rocket 3.8 19:24:14 10° NW 19:29:16 66° WSW 19:34:21 10° SSE
ATLAS CENTAUR R/B 3.8 19:30:06 10° NNE 19:30:20 10° NNE 19:30:20 10° NNE
Cosmos 1603 3.9 19:31:49 10° N 19:37:17 48° ENE 19:39:46 29° ESE
CZ-2D R/B 3.1 19:37:26 19° SSE 19:40:04 65° ENE 19:43:57 10° N
Meteor 1-13 Rocket 4.2 19:35:13 10° N 19:40:38 55° E 19:46:01 10° SSE
Okean 1 3.9 19:37:31 10° NNW 19:41:26 56° W 19:45:18 10° S
CZ-4C R/B 3.9 19:36:34 10° N 19:42:32 27° NE 19:43:52 25° ENE
ARGOS Delta rocket 3.6 19:38:50 10° NNE 19:43:36 84° E 19:48:07 10° S
SeaSat 1 2.6 19:47:22 44° E 19:48:11 49° ENE 19:52:56 10° NNW
Cosmos 2263 Rocket 2.2 19:43:41 10° S 19:49:02 52° ESE 19:51:05 34° NE
Tsikada Rocket 4.5 19:52:20 10° SSW 19:58:41 64° W 20:05:04 10° N
USA 215 3.4 19:56:01 17° NE 20:01:13 71° NW 20:07:42 10° SW
Envisat 3.0 19:58:15 10° S 20:03:19 82° WSW 20:08:26 10° NNW
Meteor 1-4 Rocket 3.6 20:02:29 10° SSW 20:05:50 43° W 20:08:06 18° NNW
Sakura Rocket 4.5 20:00:40 10° WSW 20:06:08 48° S 20:07:53 40° SE
Okean 2 Rocket 4.2 20:05:51 10° SSW 20:10:01 43° W 20:14:14 10° N
Meteor 1-5 Rocket 4.2 20:09:02 10° S 20:14:53 86° E 20:20:53 10° N
Meteor 2-4 Rocket 3.6 20:10:10 10° N 20:15:56 86° W 20:18:20 36° S
Cosmos 1110 Rocket 4.2 20:18:03 10° NNW 20:23:19 68° WSW 20:24:19 55° SSW
Meteor 1-11 Rocket 4.4 20:19:02 10° SSW 20:24:25 52° WNW 20:29:58 10° N
USA 267 4.3 20:32:55 30° NNE 20:32:55 30° NNE 20:37:48 10° NNW
BREEZE-M DEB (TANK) 4.4 20:17:16 10° SW 20:34:29 65° SE 20:34:31 65° SE
Cosmos 1943 3.8 20:37:07 10° NNW 20:41:12 49° NNW 20:41:12 49° NNW
COSMOS 2455 4.2 20:46:05 10° WSW 20:51:33 36° WNW 20:54:57 21° N
Resurs 01 Rocket 4.2 21:07:01 17° NW 21:07:01 17° NW 21:08:22 10° NW
CZ-4C R/B 3.8 21:24:16 10° NW 21:29:06 45° NW 21:29:06 45° NW
Cosmos 2263 Rocket 4.4 21:29:17 10° WSW 21:32:58 20° WNW 21:32:58 20° WNW
